Flag for Pakistan Weather past 2 weeks in Lahore, Pakistan

Now
50 °F

Fog.


Feels Like: 48 °F
Forecast: 45 / 61 °F
Wind: 6 mph from Northwest

Location: Lahore Airport

Current Time: Dec 20, 2014 at 2:13:16 PM

Latest Report: Dec 20, 2014 at 1:25 PM


Visibility: 0 mi

Pressure: 30.09 "Hg

Humidity: 82%

Dew point: 45 °F

Location of LahoreLocation

Historic Weather in Lahore — Graph

°F

Lahore temperature yesterday

Maximum temperature yesterday: 48 °F (at 1:25 PM)
Minimum temperature yesterday: 41 °F (at 5:55 AM)
Average temperature yesterday: 45 °F

Past Weeks' High & Low Weather Summary

 TemperatureHumidityPressure
High79 °F (Dec 5, 2:25 PM)100% (Dec 17, 6:55 AM)30.27 "Hg (Dec 17, 6:55 AM)
Low39 °F (Dec 20, 4:30 AM)20% (Dec 6, 3:55 PM)29.59 "Hg (Dec 20, 7:00 AM)
Average56 °F67%30.09 "Hg
* Reported Dec 5 12:25 PM — Dec 20 12:55 PM, Lahore, Weather by CustomWeather, © 2014

Note: Actual official high and low records may vary slightly from our data, if they occured in-between our weather recording intervals... More about our weather records

Advertising

Lahore weather history for previous 24 hours

 ConditionsComfort  
Time TempWeatherWind HumidityBarometerVisibility
12:55 PM
Dec 20
50 °FFog.5 mph82%30.12 "Hg1 mi
12:25 PM50 °FFog.No wind82%30.12 "Hg1 mi
11:55 AM46 °FFog.No wind93%30.15 "Hg1 mi
11:25 AM45 °FFog.No wind93%30.15 "Hg1 mi
10:55 AM45 °FFog.No wind93%30.18 "Hg1 mi
10:25 AM45 °FFog.No wind87%30.18 "Hg1 mi
9:55 AM45 °FFog.No wind87%30.21 "Hg1 mi
9:25 AM43 °FFog.3 mph93%30.21 "Hg1 mi
8:55 AM43 °FFog.5 mph93%30.18 "Hg1 mi
8:25 AM41 °FFog.5 mph87%30.18 "Hg1 mi
8:00 AM41 °FFog.5 mph87%30.18 "Hg1 mi
7:30 AM39 °FFog.6 mph93%30.18 "Hg1 mi
7:00 AM39 °FFog.3 mph93%29.59 "Hg1 mi
6:25 AM39 °FFog.No wind93%30.18 "Hg1 mi
6:00 AM39 °FFog.5 mph93%30.18 "Hg1 mi
4:59 AM39 °FChilly.No wind93%30.18 "HgN/A
4:30 AM39 °FFog.3 mph93%30.15 "Hg1 mi
3:55 AM41 °FFog.6 mph87%30.18 "Hg1 mi
3:25 AM41 °FFog.6 mph87%30.18 "Hg1 mi
2:55 AM41 °FFog.6 mph81%30.18 "Hg1 mi
2:25 AM41 °FFog.5 mph81%30.18 "Hg1 mi
1:55 AM41 °FFog.5 mph81%30.18 "Hg1 mi
1:25 AM41 °FFog.5 mph87%30.21 "Hg1 mi
12:55 AM41 °FFog.6 mph87%30.21 "Hg1 mi
12:25 AM43 °FFog.5 mph81%30.21 "Hg1 mi
11:55 PM
Dec 19
43 °FFog.6 mph81%30.24 "Hg1 mi
11:25 PM43 °FFog.No wind87%30.24 "Hg1 mi
10:55 PM43 °FFog.3 mph87%30.24 "Hg1 mi
10:25 PM45 °FFog.5 mph81%30.24 "Hg1 mi
9:55 PM45 °FFog.6 mph81%30.24 "Hg1 mi
9:25 PM45 °FFog.3 mph87%30.24 "Hg1 mi
8:55 PM45 °FFog.No wind81%30.24 "Hg1 mi
8:25 PM46 °FFog.5 mph82%30.24 "Hg1 mi
7:55 PM46 °FFog.No wind82%30.21 "Hg1 mi
7:25 PM46 °FFog.3 mph87%30.21 "Hg1 mi
6:55 PM46 °FFog.No wind87%30.21 "Hg1 mi
6:25 PM46 °FFog.5 mph87%30.21 "Hg1 mi
5:55 PM46 °FFog.5 mph93%30.18 "Hg1 mi
5:25 PM48 °FFog.No wind87%30.18 "Hg1 mi
4:55 PM48 °FFog.No wind87%30.18 "Hg1 mi
4:25 PM48 °FFog.No wind94%30.18 "Hg1 mi
3:55 PM48 °FFog.5 mph94%30.18 "Hg1 mi
3:25 PM48 °FFog.3 mph94%30.18 "Hg1 mi
2:55 PM48 °FFog.No wind94%30.21 "Hg1 mi
2:25 PM48 °FFog.No wind87%30.21 "Hg1 mi
Weather by CustomWeather, © 2014

See weather overviewHow to use our weather pages